Time,TemperatureF,DewpointF,PressureIn,WindDirection,WindDirectionDegrees,WindSpeedMPH,WindSpeedGustMPH,Humidity,HourlyPrecipIn,Conditions,Clouds,dailyrainin,SolarRadiationWatts/m^2,SoftwareType,DateUTC
2013-04-21 00:01:00,40.0,35.0,-100.00,NW,310,8.0,20.0,82,0.00,,,0.00,14.000000,,2013-04-21 06:01:00,
2013-04-21 00:12:00,40.0,35.0,-100.00,NW,310,8.0,20.0,82,0.00,,,0.00,14.000000,,2013-04-21 06:12:00,
2013-04-21 00:22:00,40.0,35.0,-100.00,NW,310,8.0,20.0,82,0.00,,,0.00,14.000000,,2013-04-21 06:22:00,
2013-04-21 00:32:00,40.0,35.0,-100.00,NW,310,8.0,20.0,82,0.00,,,0.00,14.000000,,2013-04-21 06:32:00,
2013-04-21 01:01:00,37.0,35.0,-100.00,WNW,297,5.0,16.0,92,0.00,,,0.00,15.000000,,2013-04-21 07:01:00,
2013-04-21 01:12:00,37.0,35.0,-100.00,WNW,297,5.0,16.0,92,0.00,,,0.00,15.000000,,2013-04-21 07:12:00,
2013-04-21 01:21:00,37.0,35.0,-100.00,WNW,297,5.0,16.0,92,0.00,,,0.00,15.000000,,2013-04-21 07:21:00,
2013-04-21 01:31:00,37.0,35.0,-100.00,WNW,297,5.0,16.0,92,0.00,,,0.00,15.000000,,2013-04-21 07:31:00,
2013-04-21 02:01:00,35.0,33.0,-100.00,West,259,5.0,26.0,92,0.00,,,0.00,17.000000,,2013-04-21 08:01:00,
2013-04-21 02:12:00,35.0,33.0,-100.00,West,259,5.0,26.0,92,0.00,,,0.00,17.000000,,2013-04-21 08:12:00,
2013-04-21 02:21:00,35.0,33.0,-100.00,West,259,5.0,26.0,92,0.00,,,0.00,17.000000,,2013-04-21 08:21:00,
2013-04-21 02:32:00,35.0,33.0,-100.00,West,259,5.0,26.0,92,0.00,,,0.00,17.000000,,2013-04-21 08:32:00,
2013-04-21 03:02:00,35.0,32.0,-100.00,NW,317,8.0,12.0,89,0.00,,,0.00,17.000000,,2013-04-21 09:02:00,
2013-04-21 03:12:00,35.0,32.0,-100.00,NW,317,8.0,12.0,89,0.00,,,0.00,17.000000,,2013-04-21 09:12:00,
2013-04-21 03:21:00,35.0,32.0,-100.00,NW,317,8.0,12.0,89,0.00,,,0.00,17.000000,,2013-04-21 09:21:00,
2013-04-21 03:32:00,35.0,32.0,-100.00,NW,317,8.0,12.0,89,0.00,,,0.00,17.000000,,2013-04-21 09:32:00,
2013-04-21 04:03:00,38.0,31.0,-100.00,West,271,5.0,17.0,75,0.00,,,0.00,27.000000,,2013-04-21 10:03:00,
2013-04-21 04:12:00,38.0,31.0,-100.00,West,271,5.0,17.0,75,0.00,,,0.00,27.000000,,2013-04-21 10:12:00,
2013-04-21 04:22:00,38.0,31.0,-100.00,West,271,5.0,17.0,75,0.00,,,0.00,27.000000,,2013-04-21 10:22:00,
2013-04-21 04:32:00,38.0,31.0,-100.00,West,271,5.0,17.0,75,0.00,,,0.00,27.000000,,2013-04-21 10:32:00,
2013-04-21 05:02:00,40.0,33.0,-100.00,West,263,5.0,19.0,76,0.00,,,0.00,26.000000,,2013-04-21 11:02:00,
2013-04-21 05:12:00,40.0,33.0,-100.00,West,263,5.0,19.0,76,0.00,,,0.00,26.000000,,2013-04-21 11:12:00,
2013-04-21 05:22:00,40.0,33.0,-100.00,West,263,5.0,19.0,76,0.00,,,0.00,26.000000,,2013-04-21 11:22:00,
2013-04-21 05:34:00,40.0,33.0,-100.00,West,263,5.0,19.0,76,0.00,,,0.00,26.000000,,2013-04-21 11:34:00,
2013-04-21 06:02:00,38.0,32.0,-100.00,WNW,299,8.0,14.0,79,0.00,,,0.00,23.000000,,2013-04-21 12:02:00,
2013-04-21 06:12:00,38.0,32.0,-100.00,WNW,299,8.0,14.0,79,0.00,,,0.00,23.000000,,2013-04-21 12:12:00,
2013-04-21 06:22:00,38.0,32.0,-100.00,WNW,299,8.0,14.0,79,0.00,,,0.00,23.000000,,2013-04-21 12:22:00,
2013-04-21 06:32:00,38.0,32.0,-100.00,WNW,299,8.0,14.0,79,0.00,,,0.00,23.000000,,2013-04-21 12:32:00,
2013-04-21 07:01:00,38.0,31.0,-100.00,NW,304,7.0,16.0,77,0.00,,,0.00,19.000000,,2013-04-21 13:01:00,
2013-04-21 07:12:00,38.0,31.0,-100.00,NW,304,7.0,16.0,77,0.00,,,0.00,19.000000,,2013-04-21 13:12:00,
2013-04-21 07:21:00,38.0,31.0,-100.00,NW,304,7.0,16.0,77,0.00,,,0.00,19.000000,,2013-04-21 13:21:00,
2013-04-21 07:32:00,38.0,31.0,-100.00,NW,304,7.0,16.0,77,0.00,,,0.00,19.000000,,2013-04-21 13:32:00,
2013-04-21 08:02:00,38.0,31.0,-100.00,WNW,289,8.0,17.0,75,0.00,,,0.00,56.000000,,2013-04-21 14:02:00,
2013-04-21 08:11:00,38.0,31.0,-100.00,WNW,289,8.0,17.0,75,0.00,,,0.00,56.000000,,2013-04-21 14:11:00,
2013-04-21 08:21:00,38.0,31.0,-100.00,WNW,289,8.0,17.0,75,0.00,,,0.00,56.000000,,2013-04-21 14:21:00,
2013-04-21 08:32:00,38.0,31.0,-100.00,WNW,289,8.0,17.0,75,0.00,,,0.00,56.000000,,2013-04-21 14:32:00,
2013-04-21 09:02:00,41.0,30.0,-100.00,WNW,293,4.0,15.0,64,0.00,,,0.00,100.000000,,2013-04-21 15:02:00,
2013-04-21 09:11:00,41.0,30.0,-100.00,WNW,293,4.0,15.0,64,0.00,,,0.00,100.000000,,2013-04-21 15:11:00,
2013-04-21 09:22:00,41.0,30.0,-100.00,WNW,293,4.0,15.0,64,0.00,,,0.00,100.000000,,2013-04-21 15:22:00,
2013-04-21 09:33:00,41.0,30.0,-100.00,WNW,293,4.0,15.0,64,0.00,,,0.00,100.000000,,2013-04-21 15:33:00,
2013-04-21 10:03:00,43.0,31.0,-100.00,ESE,121,2.0,10.0,63,0.00,,,0.00,98.000000,,2013-04-21 16:03:00,
2013-04-21 10:12:00,43.0,31.0,-100.00,ESE,121,2.0,10.0,63,0.00,,,0.00,98.000000,,2013-04-21 16:12:00,
2013-04-21 10:23:00,43.0,31.0,-100.00,ESE,121,2.0,10.0,63,0.00,,,0.00,98.000000,,2013-04-21 16:23:00,
2013-04-21 10:33:00,43.0,31.0,-100.00,ESE,121,2.0,10.0,63,0.00,,,0.00,98.000000,,2013-04-21 16:33:00,
2013-04-21 11:02:00,44.0,35.0,-100.00,North,1,6.0,9.0,70,0.00,,,0.00,173.000000,,2013-04-21 17:02:00,
2013-04-21 11:12:00,44.0,35.0,-100.00,North,1,6.0,9.0,70,0.00,,,0.00,173.000000,,2013-04-21 17:12:00,
2013-04-21 11:23:00,44.0,35.0,-100.00,North,1,6.0,9.0,70,0.00,,,0.00,173.000000,,2013-04-21 17:23:00,
2013-04-21 11:32:00,44.0,35.0,-100.00,North,1,6.0,9.0,70,0.00,,,0.00,173.000000,,2013-04-21 17:32:00,
2013-04-21 12:02:00,43.0,34.0,-100.00,East,80,4.0,13.0,70,0.00,,,0.00,134.000000,,2013-04-21 18:02:00,
2013-04-21 12:11:00,43.0,34.0,-100.00,East,80,4.0,13.0,70,0.00,,,0.00,134.000000,,2013-04-21 18:11:00,
2013-04-21 12:22:00,43.0,34.0,-100.00,East,80,4.0,13.0,70,0.00,,,0.00,134.000000,,2013-04-21 18:22:00,
2013-04-21 12:32:00,43.0,34.0,-100.00,East,80,4.0,13.0,70,0.00,,,0.00,134.000000,,2013-04-21 18:32:00,
2013-04-21 13:02:00,46.0,37.0,-100.00,ESE,118,6.0,13.0,72,0.00,,,0.00,87.000000,,2013-04-21 19:02:00,
2013-04-21 13:12:00,46.0,37.0,-100.00,ESE,118,6.0,13.0,72,0.00,,,0.00,87.000000,,2013-04-21 19:12:00,
2013-04-21 13:21:00,46.0,37.0,-100.00,ESE,118,6.0,13.0,72,0.00,,,0.00,87.000000,,2013-04-21 19:21:00,
2013-04-21 13:32:00,46.0,37.0,-100.00,ESE,118,6.0,13.0,72,0.00,,,0.00,87.000000,,2013-04-21 19:32:00,
2013-04-21 14:02:00,40.0,34.0,-100.00,North,354,3.0,16.0,80,0.00,,,0.00,37.000000,,2013-04-21 20:02:00,
2013-04-21 14:11:00,40.0,34.0,-100.00,North,354,3.0,16.0,80,0.00,,,0.00,37.000000,,2013-04-21 20:11:00,
2013-04-21 14:22:00,40.0,34.0,-100.00,North,354,3.0,16.0,80,0.00,,,0.00,37.000000,,2013-04-21 20:22:00,
2013-04-21 14:32:00,40.0,34.0,-100.00,North,354,3.0,16.0,80,0.00,,,0.00,37.000000,,2013-04-21 20:32:00,
2013-04-21 15:02:00,38.0,36.0,-100.00,ENE,69,4.0,13.0,94,0.00,,,0.00,29.000000,,2013-04-21 21:02:00,
2013-04-21 15:12:00,38.0,36.0,-100.00,ENE,69,4.0,13.0,94,0.00,,,0.00,29.000000,,2013-04-21 21:12:00,
2013-04-21 15:21:00,38.0,36.0,-100.00,ENE,69,4.0,13.0,94,0.00,,,0.00,29.000000,,2013-04-21 21:21:00,
2013-04-21 15:33:00,38.0,36.0,-100.00,ENE,69,4.0,13.0,94,0.00,,,0.00,29.000000,,2013-04-21 21:33:00,
2013-04-21 16:02:00,35.0,33.0,-100.00,NE,48,6.0,17.0,94,0.00,,,0.00,6.000000,,2013-04-21 22:02:00,
2013-04-21 16:12:00,35.0,33.0,-100.00,NE,48,6.0,17.0,94,0.00,,,0.00,6.000000,,2013-04-21 22:12:00,
2013-04-21 16:22:00,35.0,33.0,-100.00,NE,48,6.0,17.0,94,0.00,,,0.00,6.000000,,2013-04-21 22:22:00,
2013-04-21 16:33:00,35.0,33.0,-100.00,NE,48,6.0,17.0,94,0.00,,,0.00,6.000000,,2013-04-21 22:33:00,
2013-04-21 17:02:00,34.0,33.0,-100.00,WSW,238,3.0,15.0,96,0.00,,,0.00,7.000000,,2013-04-21 23:02:00,
2013-04-21 17:12:00,34.0,33.0,-100.00,WSW,238,3.0,15.0,96,0.00,,,0.00,7.000000,,2013-04-21 23:12:00,
2013-04-21 17:22:00,34.0,33.0,-100.00,WSW,238,3.0,15.0,96,0.00,,,0.00,7.000000,,2013-04-21 23:22:00,
2013-04-21 17:32:00,34.0,33.0,-100.00,WSW,238,3.0,15.0,96,0.00,,,0.00,7.000000,,2013-04-21 23:32:00,
2013-04-21 18:01:00,32.0,31.0,-100.00,NNE,29,7.0,16.0,96,0.00,,,0.00,7.000000,,2013-04-22 00:01:00,
2013-04-21 18:11:00,32.0,31.0,-100.00,NNE,29,7.0,16.0,96,0.00,,,0.00,7.000000,,2013-04-22 00:11:00,
2013-04-21 18:22:00,32.0,31.0,-100.00,NNE,29,7.0,16.0,96,0.00,,,0.00,7.000000,,2013-04-22 00:22:00,
2013-04-21 18:32:00,32.0,31.0,-100.00,NNE,29,7.0,16.0,96,0.00,,,0.00,7.000000,,2013-04-22 00:32:00,
2013-04-21 19:01:00,33.0,32.0,-100.00,NNE,26,6.0,19.0,95,0.00,,,0.00,11.000000,,2013-04-22 01:01:00,
2013-04-21 19:12:00,33.0,32.0,-100.00,NNE,26,6.0,19.0,95,0.00,,,0.00,11.000000,,2013-04-22 01:12:00,
2013-04-21 19:21:00,33.0,32.0,-100.00,NNE,26,6.0,19.0,95,0.00,,,0.00,11.000000,,2013-04-22 01:21:00,
2013-04-21 19:32:00,33.0,32.0,-100.00,NNE,26,6.0,19.0,95,0.00,,,0.00,11.000000,,2013-04-22 01:32:00,
2013-04-21 20:02:00,32.0,31.0,-100.00,NNE,27,5.0,15.0,96,0.00,,,0.00,19.000000,,2013-04-22 02:02:00,
2013-04-21 20:11:00,32.0,31.0,-100.00,NNE,27,5.0,15.0,96,0.00,,,0.00,19.000000,,2013-04-22 02:11:00,
2013-04-21 20:21:00,32.0,31.0,-100.00,NNE,27,5.0,15.0,96,0.00,,,0.00,19.000000,,2013-04-22 02:21:00,
2013-04-21 20:32:00,32.0,31.0,-100.00,NNE,27,5.0,15.0,96,0.00,,,0.00,19.000000,,2013-04-22 02:32:00,
2013-04-21 21:02:00,32.0,31.0,-100.00,NNE,30,8.0,13.0,97,0.00,,,0.00,19.000000,,2013-04-22 03:02:00,
2013-04-21 21:11:00,32.0,31.0,-100.00,NNE,30,8.0,13.0,97,0.00,,,0.00,19.000000,,2013-04-22 03:11:00,
2013-04-21 21:22:00,32.0,31.0,-100.00,NNE,30,8.0,13.0,97,0.00,,,0.00,19.000000,,2013-04-22 03:22:00,
2013-04-21 21:33:00,32.0,31.0,-100.00,NNE,30,8.0,13.0,97,0.00,,,0.00,19.000000,,2013-04-22 03:33:00,
2013-04-21 22:03:00,32.0,31.0,-100.00,NNE,30,5.0,18.0,97,0.00,,,0.00,25.000000,,2013-04-22 04:03:00,
2013-04-21 22:12:00,32.0,31.0,-100.00,NNE,30,5.0,18.0,97,0.00,,,0.00,25.000000,,2013-04-22 04:12:00,
2013-04-21 22:23:00,32.0,31.0,-100.00,NNE,30,5.0,18.0,97,0.00,,,0.00,25.000000,,2013-04-22 04:23:00,
2013-04-21 22:33:00,32.0,31.0,-100.00,NNE,30,5.0,18.0,97,0.00,,,0.00,25.000000,,2013-04-22 04:33:00,
2013-04-21 23:02:00,31.0,30.0,-100.00,NE,56,5.0,15.0,97,0.00,,,0.00,28.000000,,2013-04-22 05:02:00,
2013-04-21 23:12:00,31.0,30.0,-100.00,NE,56,5.0,15.0,97,0.00,,,0.00,28.000000,,2013-04-22 05:12:00,
2013-04-21 23:22:00,31.0,30.0,-100.00,NE,56,5.0,15.0,97,0.00,,,0.00,28.000000,,2013-04-22 05:22:00,
2013-04-21 23:32:00,31.0,30.0,-100.00,NE,56,5.0,15.0,97,0.00,,,0.00,28.000000,,2013-04-22 05:32:00,